Powrót do katalogu

SPACEWAY 3

AktywnyŁącznośćGEO
NORAD 32018·PAYLOAD·🇺🇸 United States

Wystrzelony Aug 14, 2007 z Guiana Space Centre

Loading…

TLE

ŚwieżeSource: Space-Track

Epoka: Sep 14, 2026, 10:11 UTC

1 32018U 07036A   26257.42467116 -.00000247  00000-0  00000-0 0  9997
2 32018   4.2286  76.0219 0001257 135.0788 255.5566  0.99141961 47342

Śledź SPACEWAY 3 w czasie rzeczywistym z AllMySat

Download on the App Store